Temperature
7 7 7 7 7 7 7 7 6 6 6 6 6 6 6 6 6 6 6 6 6 6 6 6 5 5 5 5 5 5 5 5 5 5 5 5 5 5
7 7 7 7 6 6 6 6 6 6 6 6 6 6 6 6 6 6 6 6 5 5 5 5 5 5 5 4 4 4 4 4 4 4 4 4 4 4
7 6 6 6 6 6 6 6 6 5 5 5 6 5 5 5 5 5 5 5 5 5 5 5 5 4 4 4 4 4 4 4 4 4 4 4 4 4
6 6 6 6 6 6 5 5 5 5 5 5 5 5 5 5 5 5 5 4 4 5 4 4 4 4 4 4 4 3 3 3 3 3 3 3 3 3
6 6 6 5 5 5 5 5 5 4 4 4 4 4 4 4 4 4 4 4 4 4 4 4 4 4 4 3 3 3 3 3 3 3 3 3 2 2
5 5 5 5 5 5 5 4 4 4 4 4 4 4 4 4 3 3 3 3 4 4 4 4 3 3 3 3 3 3 3 3 2 2 2 2 2 2
5 5 5 5 5 4 4 4 4 4 4 3 3 3 3 3 3 3 3 3 3 3 3 3 3 3 3 3 3 2 2 2 2 2 2 2 2 2
4 4 4 4 4 4 4 4 4 3 3 3 3 3 3 3 3 2 2 2 2 3 3 3 3 3 2 2 2 2 2 1 1 1 1 1 1 1
4 4 4 4 4 4 3 3 3 3 3 3 2 2 2 2 2 2 2 2 2 2 2 2 2 2 2 2 1 1 1 1 1 1 1 1 1 1
3 3 3 3 3 3 3 3 2 2 2 2 2 2 2 2 2 2 1 1 1 1 1 1 2 2 2 1 1 1 1 1 1 0 0 0 0 0
3 3 2 2 3 2 2 2 2 2 2 2 2 2 2 1 1 1 1 1 1 1 1 0 1 1 1 1 1 1 0 0 0 -0 -0 -0 -0 -0
2 2 2 2 2 2 2 1 1 1 1 1 1 1 1 1 1 1 0 0 0 0 0 -0 0 -0 -0 1 1 0 0 -0 -0 -0 -1 -1 -1 -1
1 1 1 1 1 1 1 1 1 1 1 1 1 1 1 0 0 0 -0 -0 -0 -1 -1 -1 -1 -1 -2 -1 -0 -0 -0 -1 -1 -1 -1 -1 -1 -2
1 1 1 1 1 0 0 0 0 0 -0 0 0 -0 -0 -0 -0 -0 -1 -1 -1 -1 -1 -2 -2 -2 -2 -2 -2 -1 -1 -1 -1 -1 -2 -2 -2 -2
0 0 0 0 -0 -0 -0 -0 -0 -1 -1 -0 -1 -1 -1 -1 -1 -1 -1 -1 -1 -2 -2 -2 -2 -2 -3 -3 -3 -2 -2 -2 -2 -2 -2 -2 -2 -2
-0 -0 -1 -1 -1 -1 -1 -1 -1 -1 -1 -1 -1 -1 -1 -1 -1 -1 -2 -2 -2 -2 -2 -2 -3 -3 -3 -3 -3 -3 -3 -3 -3 -3 -3 -3 -3 -3
-1 -1 -1 -1 -1 -1 -2 -2 -2 -2 -2 -2 -2 -2 -2 -2 -2 -2 -2 -2 -2 -2 -2 -3 -3 -3 -3 -3 -3 -3 -3 -3 -4 -4 -4 -3 -3 -3
-2 -2 -2 -2 -2 -2 -2 -2 -2 -2 -2 -2 -2 -3 -3 -3 -3 -3 -3 -3 -3 -3 -3 -3 -3 -3 -4 -4 -4 -4 -4 -4 -4 -4 -4 -4 -4 -4
-2 -2 -2 -2 -2 -2 -2 -2 -2 -3 -3 -3 -3 -3 -3 -3 -3 -3 -4 -4 -4 -4 -4 -4 -4 -4 -5 -5 -4 -4 -5 -5 -5 -5 -5 -5 -5 -4
-3 -3 -3 -3 -3 -3 -3 -3 -3 -3 -3 -3 -3 -4 -4 -4 -4 -4 -4 -5 -5 -5 -5 -5 -5 -5 -5 -5 -5 -5 -5 -5 -5 -5 -5 -5 -5 -5
-3 -3 -3 -3 -3 -3 -3 -4 -4 -4 -4 -4 -4 -4 -4 -5 -5 -5 -5 -5 -5 -5 -5 -5 -6 -6 -6 -6 -6 -5 -5 -6 -6 -6 -6 -6 -6 -5
-4 -4 -4 -4 -4 -4 -4 -4 -4 -4 -4 -4 -4 -5 -5 -5 -5 -5 -6 -6 -6 -6 -6 -6 -6 -6 -6 -6 -6 -6 -6 -6 -6 -6 -6 -7 -7 -7
-4 -4 -4 -4 -4 -4 -5 -5 -5 -5 -5 -5 -5 -5 -5 -5 -6 -6 -6 -6 -6 -6 -6 -6 -6 -6 -6 -6 -7 -7 -6 -6 -6 -6 -6 -6 -7 -7
Wind_Speed
7 7 5 4 4 3 4 4 4 4 5 4 3 3 6 8 9 8 8 9 10 10 9 9 9 8 8 8 9 9 9 9 9 10 10 11 11 11
5 6 6 4 4 3 4 4 4 4 4 4 4 3 4 5 8 8 8 9 10 10 10 10 10 10 9 9 10 10 9 9 10 10 11 12 12 12
6 7 7 5 4 4 3 3 3 3 4 3 2 2 3 3 4 6 7 7 8 11 11 11 11 10 10 10 10 10 9 9 10 11 12 13 13 13
7 6 6 5 5 4 4 4 4 3 3 4 3 2 3 3 3 3 4 6 7 10 11 11 11 11 11 11 10 10 10 10 11 11 12 13 14 15
7 7 7 6 6 4 5 5 4 3 3 3 3 2 2 2 2 2 3 4 6 8 10 11 11 11 11 11 11 11 11 11 11 12 13 13 14 15
6 7 7 7 7 6 5 5 4 4 3 3 3 2 2 1 1 2 3 3 4 6 8 9 10 11 11 11 11 11 11 11 12 12 13 14 14 15
5 6 6 7 8 7 6 6 6 5 4 4 3 2 2 2 3 2 3 3 4 3 3 5 6 7 9 11 11 12 12 12 12 12 13 14 15 15
6 5 5 6 8 9 9 9 8 7 6 5 4 5 5 4 3 3 3 2 4 2 2 5 4 5 7 9 11 11 11 12 12 13 13 14 14 14
5 5 4 5 6 6 7 8 8 9 9 7 7 7 6 6 5 4 4 5 5 3 2 4 3 5 7 9 11 11 11 12 12 13 13 13 13 13
5 5 5 5 6 6 6 5 5 6 7 6 6 6 6 5 6 6 5 4 2 2 2 3 3 4 5 8 10 11 11 11 12 11 11 11 12 12
4 4 5 5 7 7 6 5 4 4 5 6 6 6 6 6 5 2 2 1 3 3 2 2 2 3 3 4 7 9 10 11 11 11 11 11 11 11
2 3 5 5 6 7 6 6 6 5 3 2 2 3 3 4 5 5 4 4 2 3 2 2 2 1 3 3 3 6 8 10 11 11 11 11 10 9
3 3 3 5 6 6 5 5 6 4 3 3 2 1 1 2 2 4 4 4 4 4 3 2 2 2 3 3 3 4 5 6 8 9 10 10 11 9
3 3 3 5 5 5 4 4 4 3 2 2 1 1 1 2 1 2 3 3 3 4 5 4 3 3 2 3 4 3 4 6 6 5 7 10 11 12
3 4 4 4 4 3 3 4 3 2 2 2 2 2 2 1 1 0 0 1 2 2 3 4 3 3 3 4 4 3 3 4 4 4 5 6 7 7
2 2 2 3 2 2 2 2 2 2 3 3 2 1 1 1 1 1 1 1 1 2 2 3 4 3 3 4 5 5 4 3 4 5 5 6 8 9
2 1 1 1 2 1 1 1 2 2 2 2 2 1 1 1 1 0 1 1 2 2 2 2 3 4 5 4 4 5 5 5 5 4 5 7 6 7
3 2 2 2 3 3 3 2 2 2 2 2 2 2 2 2 1 1 1 1 2 3 3 2 2 2 2 3 6 5 4 4 4 5 4 6 8 7
2 3 3 3 3 3 3 3 3 2 2 3 3 3 2 2 2 2 2 2 2 3 3 2 1 1 3 5 4 5 4 4 4 5 5 5 8 8
2 2 3 3 3 3 3 3 2 2 2 3 3 3 3 2 2 2 2 3 3 3 3 2 2 3 4 4 4 4 6 5 4 6 6 6 7 10
1 2 2 2 2 2 2 2 3 3 3 3 3 3 3 3 3 3 3 3 3 3 4 4 4 5 2 1 3 4 4 7 7 6 6 6 6 5
1 1 2 2 2 3 3 3 3 3 3 3 3 3 3 3 3 3 3 3 3 3 4 3 3 2 1 2 5 6 6 6 9 12 11 9 5 4
1 1 2 2 2 2 3 3 3 3 3 3 3 3 3 3 3 3 3 3 3 3 3 3 2 2 2 3 5 5 7 7 5 6 6 9 11 14
Wind_Direction
200 200 202 205 196 197 184 178 185 225 246 238 239 238 228 229 234 230 233 240 243 248 251 255 261 261 259 261 265 268 266 269 273 276 279 284 284 282
197 197 204 206 200 197 196 197 198 207 235 232 233 243 223 232 236 230 234 243 243 246 248 252 256 256 255 256 258 259 261 266 268 273 274 283 280 279
199 200 206 199 198 199 194 196 206 202 232 255 245 234 224 234 237 230 233 235 244 249 252 254 253 252 253 255 256 257 259 263 268 271 275 279 283 279
203 202 208 202 200 202 199 204 211 210 213 237 248 232 235 233 231 232 238 241 244 250 254 256 251 249 251 254 255 256 258 261 267 272 275 278 281 283
203 203 205 198 204 204 201 205 208 210 208 218 240 239 240 236 237 255 257 253 254 254 257 253 248 248 251 252 254 256 259 262 267 271 273 276 279 281
206 205 205 203 207 204 205 205 200 201 202 212 231 233 235 235 206 240 271 267 267 264 256 253 253 252 252 254 255 257 259 263 268 271 273 275 277 280
206 206 209 208 209 209 209 203 197 203 205 214 225 230 233 218 226 224 248 276 280 256 265 256 255 254 256 258 257 258 261 265 270 273 274 276 277 280
209 210 211 212 217 218 219 211 204 203 208 216 227 233 239 228 224 224 237 265 276 249 244 265 242 246 258 256 263 265 265 267 272 275 275 275 276 278
207 208 216 219 217 218 223 222 223 223 216 214 224 230 232 223 215 224 225 235 251 243 231 263 248 251 258 260 266 265 266 269 275 277 276 274 275 280
208 210 214 223 222 212 211 218 226 230 229 227 226 230 229 219 210 220 227 239 278 260 197 254 273 261 272 265 262 262 265 274 278 275 273 276 279 281
213 213 212 219 223 211 204 213 225 239 239 229 231 235 237 230 211 191 193 233 272 261 205 228 265 286 279 261 265 266 269 276 278 277 279 282 283 284
211 216 219 220 218 210 206 207 219 228 223 231 235 245 233 221 209 202 204 213 251 255 220 209 241 279 289 274 268 271 270 275 279 280 283 287 290 286
211 222 226 221 221 219 214 215 223 218 206 211 217 215 211 217 221 221 216 211 222 242 214 186 220 229 247 282 291 272 262 273 278 278 281 286 292 291
218 222 220 216 218 215 213 211 204 185 169 178 196 216 225 239 241 234 235 239 247 246 224 207 222 230 246 270 278 290 283 277 272 273 277 289 292 292
220 215 210 208 207 206 201 193 184 177 171 188 211 228 228 216 187 213 339 331 318 293 244 232 224 234 239 254 266 277 292 289 279 273 276 280 281 285
215 208 205 195 182 181 190 203 200 185 184 201 212 219 187 174 192 197 254 300 311 307 306 260 237 226 241 249 254 268 271 275 291 288 286 281 280 276
177 162 172 184 193 197 196 198 196 190 196 196 193 198 208 208 241 215 209 251 252 263 283 303 291 266 242 235 252 261 268 272 276 287 295 292 282 277
174 187 207 209 207 208 207 210 209 205 201 195 198 202 212 218 229 238 229 240 253 258 265 274 296 327 323 279 237 248 260 266 281 287 286 291 291 285
198 201 210 214 213 211 209 209 215 212 200 193 199 204 207 217 222 229 231 245 257 262 262 260 256 249 281 287 284 236 247 277 291 292 282 277 285 290
210 210 215 215 213 211 209 208 206 196 195 198 200 204 207 214 224 229 231 237 253 268 277 275 251 241 246 262 274 279 267 268 277 285 289 288 284 290
233 236 227 216 213 209 206 204 204 206 205 201 203 208 213 213 222 230 240 256 263 264 269 271 267 281 275 270 282 283 277 274 275 278 286 293 296 298
238 241 237 223 212 209 206 205 207 209 209 211 212 214 215 215 222 231 238 247 255 259 265 275 290 302 272 258 277 286 295 299 296 292 280 264 267 276
249 247 245 235 221 211 209 209 211 216 217 216 214 215 214 218 223 227 235 244 251 260 268 280 289 277 264 261 276 287 291 299 303 307 293 285 282 282
Height
1516 1517 1519 1521 1522 1523 1525 1526 1527 1526 1525 1526 1527 1528 1529 1529 1529 1529 1529 1529 1529 1528 1528 1528 1528 1528 1527 1527 1527 1527 1526 1526 1525 1525 1524 1524 1523 1522
1511 1513 1514 1516 1518 1519 1520 1521 1522 1523 1521 1521 1522 1524 1524 1524 1525 1525 1525 1524 1524 1524 1524 1523 1523 1523 1523 1523 1522 1522 1522 1521 1520 1520 1519 1519 1518 1517
1507 1508 1509 1511 1512 1514 1515 1516 1517 1518 1517 1517 1518 1519 1520 1520 1520 1520 1520 1520 1519 1519 1519 1518 1518 1518 1518 1517 1517 1517 1517 1516 1515 1514 1514 1513 1513 1512
1502 1503 1505 1506 1507 1509 1510 1511 1512 1513 1514 1513 1513 1514 1515 1515 1515 1515 1515 1515 1515 1514 1514 1513 1513 1512 1512 1512 1512 1512 1511 1511 1510 1509 1508 1508 1507 1506
1497 1499 1500 1501 1502 1504 1505 1506 1507 1508 1509 1509 1509 1509 1510 1510 1510 1510 1510 1510 1510 1509 1509 1508 1508 1507 1507 1507 1507 1506 1506 1505 1504 1503 1502 1501 1500 1499
1492 1494 1495 1496 1497 1499 1500 1501 1502 1503 1504 1504 1504 1504 1505 1505 1505 1505 1504 1505 1504 1504 1503 1503 1503 1503 1502 1502 1501 1501 1500 1499 1498 1497 1496 1495 1494 1492
1487 1489 1490 1492 1493 1494 1495 1496 1497 1498 1499 1499 1499 1499 1499 1500 1500 1500 1500 1499 1499 1499 1498 1498 1498 1497 1497 1496 1496 1495 1494 1493 1492 1491 1490 1489 1487 1486
1482 1484 1485 1487 1488 1489 1491 1492 1493 1493 1493 1494 1494 1494 1494 1495 1495 1495 1495 1494 1493 1493 1493 1492 1492 1491 1491 1490 1490 1489 1488 1487 1486 1485 1484 1482 1481 1479
1478 1479 1481 1482 1483 1484 1485 1487 1488 1488 1489 1490 1489 1489 1490 1490 1490 1490 1490 1489 1488 1488 1487 1485 1486 1485 1485 1484 1484 1483 1482 1480 1479 1478 1477 1476 1474 1473
1473 1475 1476 1477 1478 1479 1480 1481 1482 1482 1483 1484 1485 1485 1485 1485 1485 1485 1485 1484 1484 1483 1482 1480 1479 1479 1479 1478 1477 1477 1476 1475 1473 1471 1470 1469 1468 1467
1469 1470 1471 1472 1473 1474 1475 1475 1476 1477 1478 1479 1479 1479 1480 1480 1480 1480 1479 1479 1477 1477 1477 1476 1474 1473 1472 1472 1472 1471 1470 1469 1467 1466 1464 1463 1462 1460
1464 1465 1466 1467 1468 1469 1469 1470 1470 1471 1472 1473 1473 1474 1474 1475 1475 1475 1475 1474 1473 1472 1472 1471 1469 1468 1466 1466 1466 1465 1464 1463 1461 1460 1458 1457 1456 1454
1459 1460 1461 1462 1463 1464 1464 1465 1465 1466 1467 1467 1468 1468 1469 1469 1470 1470 1470 1469 1469 1468 1468 1467 1465 1464 1463 1460 1460 1459 1458 1457 1455 1454 1452 1451 1450 1448
1455 1456 1457 1458 1458 1459 1459 1460 1461 1462 1462 1462 1462 1463 1463 1464 1464 1464 1465 1464 1464 1464 1464 1463 1461 1460 1458 1456 1454 1453 1453 1452 1450 1448 1446 1445 1444 1443
1450 1451 1452 1453 1454 1455 1455 1456 1457 1457 1457 1457 1458 1458 1459 1460 1460 1460 1459 1459 1459 1459 1459 1458 1457 1456 1455 1453 1450 1449 1447 1446 1445 1443 1441 1439 1438 1436
1446 1447 1448 1449 1450 1450 1451 1452 1452 1453 1453 1453 1454 1454 1455 1455 1455 1455 1455 1455 1455 1454 1454 1453 1452 1451 1450 1449 1447 1445 1443 1442 1440 1438 1436 1434 1432 1430
1442 1443 1444 1445 1445 1446 1447 1447 1448 1449 1449 1449 1450 1450 1450 1450 1451 1451 1451 1451 1450 1449 1449 1449 1448 1447 1445 1444 1442 1441 1439 1437 1436 1433 1430 1427 1426 1425
1439 1438 1439 1440 1441 1441 1442 1443 1444 1444 1445 1445 1446 1446 1446 1446 1446 1447 1447 1446 1446 1445 1445 1444 1443 1442 1441 1439 1439 1436 1435 1433 1431 1429 1426 1422 1419 1419
1434 1434 1435 1436 1436 1437 1438 1438 1439 1440 1440 1441 1441 1442 1442 1442 1442 1442 1442 1442 1442 1441 1441 1440 1439 1437 1436 1434 1433 1433 1431 1428 1426 1423 1421 1418 1415 1413
1430 1431 1431 1432 1432 1433 1433 1434 1435 1435 1436 1436 1437 1437 1438 1438 1438 1438 1438 1438 1437 1437 1437 1436 1435 1434 1433 1431 1429 1428 1427 1424 1421 1418 1416 1414 1411 1409
1426 1427 1427 1428 1428 1429 1429 1430 1431 1431 1432 1432 1432 1433 1434 1434 1434 1434 1434 1434 1434 1433 1432 1432 1432 1431 1430 1428 1426 1423 1422 1421 1418 1415 1412 1409 1405 1402
1423 1423 1424 1424 1425 1425 1425 1426 1426 1427 1427 1428 1428 1429 1429 1429 1430 1430 1430 1430 1430 1429 1429 1428 1428 1427 1426 1424 1421 1419 1417 1416 1414 1412 1409 1406 1403 1399
1420 1420 1420 1421 1421 1421 1422 1422 1422 1422 1423 1423 1424 1424 1425 1425 1426 1426 1426 1426 1426 1425 1425 1425 1424 1423 1422 1420 1418 1416 1414 1411 1409 1407 1405 1403 1401 1398